Retour au catalogue

DMSP 5D-2 F15 DEB

ActifSSO
NORAD 25993·DEBRIS·🇺🇸 United States

Lancé Dec 12, 1999 depuis Vandenberg Space Force Base

Loading…

Prochains Passages (prochaines 24 heures)

TLE

FraisSource: Space-Track

Époque: Sep 14, 2026, 11:25 UTC

1 25993U 99067C   26257.47591236  .00003138  00000-0  71885-3 0  9995
2 25993  98.3514 244.4965 0004425  44.9589 107.3792 14.56295867396952

Suivez DMSP 5D-2 F15 DEB en temps réel avec AllMySat

Download on the App Store